Showing default

OPS 1427 (OV3-4), 2201

Orbit data source: Space-Track

OPS 1427 (OV3-4), 2201 is a payload satellite owned by USAF OAR (US) in LEO that was launched on Fri, 10 Jun 1966 UTC via an SCOUT B launch vehicle from the Wallops Island (WLPIS). Payload-class satellites include a variety of spacecraft equipped with specific instruments for various scientific and technological missions. These include communications satellites like Starlink; space stations such as the ISS; scientific satellites like the Hubble; Earth observation satellites from companies like Planet Labs, Umbra, and HawkEye 360; GPS; miniature CubeSats for education and research; and military/defense satellites.

Loading next visibility...
Identifier
2201, 1966-052A
Orbit
LEO
Country
Flag of USUS
Related business
Manufacturer
Space General
Mission
Defense Technology
Bus & Motor
OV3, Unknown motor
Mass
78 kg wet, 78 kg dry
Launch date (UTC)
1966-06-10 (59 years ago)
Launch vehicle
SCOUT B
Launch site
Wallops Island (WLPIS)
Object type
Payload
Rocket body
Debris
Shape & HBR
Oct Cyl, 0.3 m
Radar Cross Section
0.548 m², Medium (>0.1 m² and < 1m²)

Expand to show TLE details & history
Last TLE update: 3 days ago

TLE from 3 days ago
0 OPS 1427 (OV3-4)
1 02201U 66052A   25259.22652003  .00000356  00000-0  53859-3 0  9994
2 02201  40.8931 234.4385 2236102 326.4163  21.2540 10.10060496169627
Epoch: 2025-09-16T05:26Z
TLE epoch observation values (Epoch: 2025-09-16T05:26:11.33Z)
Latitude
0.00003°
Longitude
157.47147°
Altitude
862.162 km
Speed
8.127 km/s
True Right ascension
15h 37m 45s
True Declination
0° 00' 00"
Sunlit
Object was in daylight at epoch
Visualization orbit readout
Latitude
Unknown
Longitude
Unknown
Altitude
Unknown
Speed
Unknown
Apparent Right ascension
Unknown
Apparent Declination
Unknown
Sunlit
N/A
Visualization observer readout
Local Sidereal Time
10:24:32
Azimuth
Unknown
Elevation
Unknown
Doppler factor
Unknown
Orbital elements
Apogee altitude
4,685.652 km
Perigee altitude
641.92 km
Semi-major axis
9,041.923 km
Eccentricity
0.22361
Inclination
40.8931°
RAAN
234.4385°
Arg. of periapsis
326.4163°
True anomaly
33.65217°
Mean anomaly
21.254°
Eccentric anomaly
27.08802°
Mean motion
2.52436 °/min
Orbital period
142.61 mins
BSTAR
0.00053859
Loading maneuver chart data...
Computing Atmospheric mass density...
Loading historical data...
Loading historical data...
Loading historical data...
Loading historical data...
Loading historical data...
Loading historical data...
Loading historical data...
Other satellites on launch #52 in the year 1966 (1966-06-10 UTC)

Documentation

Showing up to 5 results
|